sat.trackr.live / text

‹ back to catalog

LEMUR-2-VALHALLA

NORAD 58900 · 2024-022B

PAYLOAD ACTIVE UNKNOWN

§ Identity

Operator
Country
US
Launch date
2024-01-31
Launch site
RLLB
Launch vehicle
Mass (kg)
RCS (m²)

Purposes: earth_obs

External: N2YO · Heavens-Above · Gunter

§ Orbital elements

Epoch: 2026-09-19T19:35:33.615456Z

Period
93.37 min
Inclination
97.3996°
Eccentricity
0.0009932
Mean motion
15.42226981 rev/d
Perigee alt
432.8 km
Apogee alt
446.3 km
Semi-major
6,817.7 km
B*
2.7553e-4
RAAN
114.0796°
Arg perigee
125.4688°
Mean anomaly
234.7488°
Rev number
14,684

§ Raw data

LEMUR-2-VALHALLA1 58900U 24022B   26262.81636129  .00011769  00000+0  27553-3 0  99942 58900  97.3996 114.0796 0009932 125.4688 234.7488 15.42226981146841

JSON: /api/v1/satellites/58900 · /tle

For live sub-satellite position, see the globe view (requires WebGL).

§ Visibility from observer

Set your observer location to see the next 7 days of passes ≥ 10°. The values pass through the URL so the page stays shareable.

No JS? Fill the form by hand. The geolocation button needs JavaScript.